GW4712 Weather Reports


time (UTC)temp
F
wind
direction
speed
knots
gust
knots
rain 1hr
in
rain 24hr
in
rain mn
in
humidity
%
barometer
mb
20260508205407 69 311 5.2 7.8 0.00 0.00 0.00 38 1011.8
20260508204903 69 200 2.6 7.8 0.00 0.00 0.00 39 1011.8
20260508204401 69 305 7.0 9.6 0.00 0.00 0.00 38 1011.6
20260508203856 70 301 3.5 6.1 0.00 0.00 0.00 43 1011.7
20260508203353 69 48 2.6 8.7 0.00 0.00 0.00 35 1012.0
20260508202848 70 315 5.2 7.0 0.00 0.00 0.00 39 1012.0
20260508202346 69 237 3.5 3.5 0.00 0.00 0.00 37 1012.4
20260508201843 69 309 1.7 3.5 0.00 0.00 0.00 36 1012.3
20260508201340 69 247 4.3 6.1 0.00 0.00 0.00 39 1012.4
20260508200836 68 244 5.2 6.1 0.00 0.00 0.00 39 1012.5
20260508200333 70 287 3.5 3.5 0.00 0.00 0.00 36 1012.5
20260508195829 68 313 0.9 1.7 0.00 0.00 0.00 39 1012.5
20260508195326 67 160 1.7 5.2 0.00 0.00 0.00 40 1012.9
20260508194822 66 309 2.6 5.2 0.00 0.00 0.00 40 1012.9
20260508194319 66 269 3.5 6.1 0.00 0.00 0.00 40 1013.2
20260508193816 66 297 2.6 3.5 0.00 0.00 0.00 43 1013.2
20260508193313 67 307 7.0 8.7 0.00 0.00 0.00 40 1013.3
20260508192808 69 316 4.3 9.6 0.00 0.00 0.00 38 1013.1
20260508192306 67 175 3.5 7.8 0.00 0.00 0.00 39 1013.2
20260508191803 67 314 1.7 7.0 0.00 0.00 0.00 38 1013.3
20260508191300 67 311 7.0 9.6 0.00 0.00 0.00 43 1013.3
20260508190757 67 241 2.6 3.5 0.00 0.00 0.00 40 1013.6
20260508190253 67 303 3.5 12.2 0.00 0.00 0.00 41 1013.6
20260508185749 67 248 5.2 6.1 0.00 0.00 0.00 40 1013.9
20260508185247 67 228 5.2 7.8 0.00 0.00 0.00 46 1013.8
20260508184744 68 311 5.2 11.3 0.00 0.00 0.00 45 1014.0
20260508184241 68 319 3.5 3.5 0.00 0.00 0.00 44 1014.1
20260508183738 67 313 0.9 5.2 0.00 0.00 0.00 43 1013.9
20260508183234 67 301 1.7 5.2 0.00 0.00 0.00 39 1013.9
20260508182730 66 267 5.2 11.3 0.00 0.00 0.00 41 1014.2
20260508182227 66 312 6.1 11.3 0.00 0.00 0.00 41 1014.3
20260508181723 65 308 7.0 13.0 0.00 0.00 0.00 43 1014.4
20260508181220 66 314 7.0 11.3 0.00 0.00 0.00 45 1014.6
20260508180717 65 292 5.2 7.8 0.00 0.00 0.00 43 1014.5
20260508180214 65 305 5.2 7.8 0.00 0.00 0.00 46 1014.4
20260508175710 65 233 5.2 7.8 0.00 0.00 0.00 41 1014.6
20260508175207 65 178 3.5 6.1 0.00 0.00 0.00 39 1014.7
20260508174705 64 298 2.6 7.8 0.00 0.00 0.00 42 1014.6
20260508174201 65 354 0.9 6.1 0.00 0.00 0.00 43 1014.5
20260508173658 65 281 2.6 5.2 0.00 0.00 0.00 41 1014.6
20260508173154 65 251 5.2 7.0 0.00 0.00 0.00 45 1014.7
20260508172652 64 250 1.7 2.6 0.00 0.00 0.00 43 1014.7
20260508172149 64 309 3.5 8.7 0.00 0.00 0.00 43 1014.9
20260508171645 63 248 4.3 13.0 0.00 0.00 0.00 44 1015.1
20260508171141 64 256 4.3 11.3 0.00 0.00 0.00 43 1015.2
20260508170638 65 329 3.5 6.1 0.00 0.00 0.00 45 1015.2
20260508170136 65 295 3.5 9.6 0.00 0.00 0.00 46 1015.3
20260508165633 64 325 5.2 13.0 0.00 0.00 0.00 45 1015.5
20260508165131 64 326 6.1 8.7 0.00 0.00 0.00 46 1015.7
20260508164627 65 318 9.6 12.2 0.00 0.00 0.00 41 1016.0
20260508164123 63 298 4.3 6.1 0.00 0.00 0.00 43 1015.8
20260508163621 62 184 3.5 7.0 0.00 0.00 0.00 44 1016.0
20260508163117 62 272 3.5 13.9 0.00 0.00 0.00 45 1016.0
20260508162614 63 299 0.9 6.1 0.00 0.00 0.00 46 1016.0
20260508162112 62 315 7.0 8.7 0.00 0.00 0.00 45 1016.0
20260508161608 61 309 4.3 7.8 0.00 0.00 0.00 46 1016.2
20260508161106 61 316 2.6 8.7 0.00 0.00 0.00 43 1016.2
20260508160604 61 257 5.2 7.8 0.00 0.00 0.00 46 1016.4
20260508160100 62 312 7.0 7.8 0.00 0.00 0.00 46 1016.1
20260508155557 62 312 5.2 7.8 0.00 0.00 0.00 43 1016.1
20260508155054 62 312 5.2 13.9 0.00 0.00 0.00 46 1016.2
20260508154551 64 323 5.2 7.8 0.00 0.00 0.00 41 1016.4
20260508154048 63 254 4.3 5.2 0.00 0.00 0.00 42 1016.2
20260508153545 61 314 7.0 13.9 0.00 0.00 0.00 42 1016.3
20260508153041 61 235 3.5 8.7 0.00 0.00 0.00 43 1016.4
20260508152539 61 313 5.2 11.3 0.00 0.00 0.00 45 1016.4
20260508152034 61 213 2.6 7.0 0.00 0.00 0.00 45 1016.1
20260508151531 60 315 7.0 12.2 0.00 0.00 0.00 48 1016.2
20260508151028 61 313 7.8 11.3 0.00 0.00 0.00 47 1016.4
20260508150525 61 297 1.7 3.5 0.00 0.00 0.00 48 1016.3
20260508150020 60 311 7.0 7.8 0.00 0.00 0.00 48 1016.3
20260508145518 60 312 8.7 12.2 0.00 0.00 0.00 48 1016.4
20260508145014 59 248 5.2 9.6 0.00 0.00 0.00 47 1016.5
20260508144512 59 222 6.1 8.7 0.00 0.00 0.00 45 1016.3
20260508144009 58 313 1.7 11.3 0.00 0.00 0.00 48 1016.4
20260508143506 58 315 3.5 6.1 0.00 0.00 0.00 51 1016.3
20260508143002 57 189 1.7 3.5 0.00 0.00 0.00 54 1016.4
20260508142500 57 301 6.1 8.7 0.00 0.00 0.00 53 1016.4
20260508141956 57 249 3.5 11.3 0.00 0.00 0.00 51 1016.5
20260508141453 57 241 1.7 3.5 0.00 0.00 0.00 53 1016.5
20260508140951 56 251 4.3 8.7 0.00 0.00 0.00 54 1016.5
20260508140448 55 313 1.7 5.2 0.00 0.00 0.00 56 1016.5
20260508135943 55 313 6.1 9.6 0.00 0.00 0.00 54 1016.7
20260508135440 55 313 5.2 8.7 0.00 0.00 0.00 54 1016.7
20260508134936 54 232 3.5 8.7 0.00 0.00 0.00 58 1016.6
20260508134432 54 293 7.0 8.7 0.00 0.00 0.00 55 1016.8
20260508133929 54 321 0.9 7.0 0.00 0.00 0.00 56 1016.8
20260508133427 54 311 4.3 7.0 0.00 0.00 0.00 58 1016.9
20260508132924 54 282 1.7 7.8 0.00 0.00 0.00 59 1016.8
20260508132422 53 88 0.9 3.5 0.00 0.00 0.00 61 1016.9
20260508131918 53 226 1.7 1.7 0.00 0.00 0.00 60 1017.0
20260508131414 52 169 0.9 1.7 0.00 0.00 0.00 61 1016.8
20260508130911 52 173 0.9 1.7 0.00 0.00 0.00 62 1016.9
20260508130408 52 303 0.0 0.9 0.00 0.00 0.00 63 1016.9
20260508125903 51 69 0.9 0.9 0.00 0.00 0.00 67 1016.9
20260508125359 51 106 0.0 1.7 0.00 0.00 0.00 65 1016.9
20260508124858 50 157 0.0 0.9 0.00 0.00 0.00 76 1016.7
20260508124355 48 95 0.0 0.9 0.00 0.00 0.00 82 1016.9
20260508123853 47 77 0.0 0.9 0.00 0.00 0.00 81 1017.0
20260508123351 46 80 0.0 0.0 0.00 0.00 0.00 85 1017.0
20260508122847 46 81 0.0 0.9 0.00 0.00 0.00 88 1016.7
20260508122344 44 81 0.9 0.9 0.00 0.00 0.00 90 1016.8
20260508121841 0 0.0 0.0 0.00 0.00 0.00 1016.7
20260508121339 0 0.0 0.0 0.00 0.00 0.00 1016.9
20260508120837 0 0.0 0.0 0.00 0.00 0.00 1016.8
20260508120334 40 128 0.9 1.7 0.00 0.00 0.00 96 1016.8
20260508115832 40 128 0.9 1.7 0.00 0.00 0.00 96 1016.7
20260508115329 39 183 0.0 0.9 0.00 0.00 0.00 96 1016.6
20260508114826 39 256 0.0 0.0 0.00 0.00 0.00 96 1016.6
20260508114323 38 257 0.0 0.0 0.00 0.00 0.00 97 1016.6
20260508113819 38 257 0.0 0.0 0.00 0.00 0.00 97 1016.5
20260508113318 37 257 0.0 0.0 0.00 0.00 0.00 98 1016.6
20260508112813 37 257 0.0 0.0 0.00 0.00 0.00 98 1016.6
20260508112311 36 257 0.0 0.0 0.00 0.00 0.00 98 1016.6
20260508111807 36 257 0.0 0.0 0.00 0.00 0.00 98 1016.5
20260508111305 35 257 0.0 0.0 0.00 0.00 0.00 99 1016.4
20260508110802 35 257 0.0 0.0 0.00 0.00 0.00 99 1016.4
20260508110259 35 257 0.0 0.0 0.00 0.00 0.00 99 1016.5
20260508105759 35 257 0.0 0.0 0.00 0.00 0.00 99 1016.3
20260508105256 35 257 0.0 0.0 0.00 0.00 0.00 99 1016.6
20260508104753 34 258 0.0 0.0 0.00 0.00 0.00 99 1016.2
20260508104250 34 257 0.0 0.0 0.00 0.00 0.00 99 1016.2
20260508103747 34 257 0.0 0.0 0.00 0.00 0.00 99 1016.2
20260508103244 34 257 0.0 0.0 0.00 0.00 0.00 99 1016.1
20260508102741 34 257 0.0 0.0 0.00 0.00 0.00 99 1016.0
20260508102239 34 257 0.0 0.0 0.00 0.00 0.00 99 1016.0
20260508101736 34 257 0.0 0.0 0.00 0.00 0.00 99 1016.0
20260508101234 34 257 0.0 0.0 0.00 0.00 0.00 99 1016.0
20260508100732 33 257 0.0 0.0 0.00 0.00 0.00 99 1015.8
20260508100229 33 257 0.0 0.0 0.00 0.00 0.00 99 1015.9
20260508095725 33 257 0.0 0.0 0.00 0.00 0.00 99 1015.9
20260508095223 33 257 0.0 0.0 0.00 0.00 0.00 99 1015.8
20260508094719 33 257 0.0 0.0 0.00 0.00 0.00 99 1015.9
20260508094216 33 257 0.0 0.0 0.00 0.00 0.00 99 1015.7
20260508093713 33 257 0.0 0.0 0.00 0.00 0.00 99 1015.8
20260508093211 33 257 0.0 0.0 0.00 0.00 0.00 99 1015.7
20260508092708 33 257 0.0 0.0 0.00 0.00 0.00 99 1015.7
20260508092206 33 257 0.0 0.0 0.00 0.00 0.00 99 1015.8
20260508091703 33 257 0.0 0.0 0.00 0.00 0.00 98 1015.9
20260508091200 33 257 0.0 0.0 0.00 0.00 0.00 98 1015.9
20260508090658 33 257 0.0 0.0 0.00 0.00 0.00 98 1015.8
20260508090155 33 257 0.0 0.0 0.00 0.00 0.00 98 1015.9
20260508085651 33 257 0.0 0.0 0.00 0.00 0.00 98 1015.7
20260508085149 34 257 0.0 0.0 0.00 0.00 0.00 98 1015.9
20260508084640 34 257 0.0 0.0 0.00 0.00 0.00 98 1015.8
20260508084137 33 257 0.0 0.0 0.00 0.00 0.00 98 1015.9
20260508083634 33 257 0.0 0.0 0.00 0.00 0.00 98 1015.8
20260508083132 33 257 0.0 0.0 0.00 0.00 0.00 98 1015.3
20260508082626 33 257 0.0 0.0 0.00 0.00 0.00 98 1015.8
20260508082124 33 257 0.0 0.0 0.00 0.00 0.00 98 1015.9
20260508081622 34 257 0.0 0.0 0.00 0.00 0.00 98 1015.8
20260508081118 34 257 0.0 0.0 0.00 0.00 0.00 98 1015.8
20260508080616 34 257 0.0 0.0 0.00 0.00 0.00 98 1015.8
20260508080114 34 257 0.0 0.0 0.00 0.00 0.00 98 1015.8
20260508075609 34 257 0.0 0.0 0.00 0.00 0.00 98 1015.7
20260508075107 34 257 0.0 0.0 0.00 0.00 0.00 98 1015.9
20260508074605 34 257 0.0 0.0 0.00 0.00 0.00 98 1015.7
20260508074101 0 0.0 0.0 0.00 0.00 0.00 1015.6
20260508073558 0 0.0 0.0 0.00 0.00 0.00 1015.8
20260508073056 0 0.0 0.0 0.00 0.00 0.00 1015.7
20260508072551 0 0.0 0.0 0.00 0.00 0.00 1015.7
20260508072049 0 0.0 0.0 0.00 0.00 0.00 1015.8
20260508071547 0 0.0 0.0 0.00 0.00 0.00 1015.9
20260508071045 0 0.0 0.0 0.00 0.00 0.00 1015.8
20260508070542 0 0.0 0.0 0.00 0.00 0.00 1015.8
20260508070040 0 0.0 0.0 0.00 0.00 0.00 1016.0
20260508065537 0 0.0 0.0 0.00 0.00 0.00 1015.9
20260508065035 0 0.0 0.0 0.00 0.00 0.00 1015.8
20260508064532 0 0.0 0.0 0.00 0.00 0.00 1015.7
20260508064030 0 0.0 0.0 0.00 0.00 0.00 1015.8
20260508063527 0 0.0 0.0 0.00 0.00 0.00 1015.8
20260508063026 0 0.0 0.0 0.00 0.00 0.00 1015.7
20260508062522 0 0.0 0.0 0.00 0.00 0.00 1015.8
20260508062019 0 0.0 0.0 0.00 0.00 0.00 1015.9
20260508061517 0 0.0 0.0 0.00 0.00 0.00 1016.0
20260508061013 0 0.0 0.0 0.00 0.00 0.00 1015.8
20260508060510 0 0.0 0.0 0.00 0.00 0.00 1015.7
20260508060007 0 0.0 0.0 0.00 0.00 0.00 1015.9
20260508055503 0 0.0 0.0 0.00 0.00 0.00 1015.7
20260508054959 36 257 0.0 0.0 0.00 0.00 0.00 97 1016.0
20260508054456 36 257 0.0 0.0 0.00 0.00 0.00 97 1016.0
20260508053953 36 258 0.0 0.0 0.00 0.00 0.00 97 1015.9
20260508053450 36 258 0.0 0.0 0.00 0.00 0.00 97 1016.0
20260508052948 36 258 0.0 0.0 0.00 0.00 0.00 97 1015.8
20260508052445 36 257 0.0 0.0 0.00 0.00 0.00 97 1015.9
20260508051942 36 257 0.0 0.0 0.00 0.00 0.00 97 1015.8
20260508051437 36 257 0.0 0.0 0.00 0.00 0.00 97 1015.8
20260508050933 37 257 0.0 0.0 0.00 0.00 0.00 97 1015.9
20260508050431 37 257 0.0 0.0 0.00 0.00 0.00 96 1016.0
20260508045926 37 257 0.0 0.0 0.00 0.00 0.00 96 1016.0
20260508045425 0 0.0 0.0 0.00 0.00 0.00 1016.0
20260508044922 0 0.0 0.0 0.00 0.00 0.00 1015.9
20260508044419 0 0.0 0.0 0.00 0.00 0.00 1015.7
20260508043914 0 0.0 0.0 0.00 0.00 0.00 1016.0
20260508043411 37 257 0.0 0.0 0.00 0.00 0.00 96 1015.9
20260508042908 37 257 0.0 0.0 0.00 0.00 0.00 96 1015.9
20260508042400 0 0.0 0.0 0.00 0.00 0.00 1015.9
20260508041856 0 0.0 0.0 0.00 0.00 0.00 1015.8
20260508041353 0 0.0 0.0 0.00 0.00 0.00 1015.6
20260508040849 0 0.0 0.0 0.00 0.00 0.00 1015.6
20260508040347 0 0.0 0.0 0.00 0.00 0.00 1015.6
20260508035844 0 0.0 0.0 0.00 0.01 0.01 1015.6
20260508035341 38 257 0.0 0.0 0.00 0.01 0.01 94 1015.6
20260508034838 38 257 0.0 0.0 0.00 0.01 0.01 94 1015.5
20260508034335 39 258 0.0 0.0 0.00 0.01 0.01 94 1015.6
20260508033832 39 258 0.0 0.0 0.00 0.01 0.01 94 1015.5
20260508033331 39 258 0.0 0.0 0.00 0.01 0.01 93 1015.5
20260508032828 39 258 0.0 0.0 0.00 0.01 0.01 93 1015.4
20260508032325 39 258 0.0 0.0 0.00 0.01 0.01 92 1015.5
20260508031822 39 257 0.0 0.0 0.00 0.01 0.01 91 1015.5
20260508031318 40 258 0.0 0.0 0.00 0.01 0.01 91 1015.4
20260508030814 40 257 0.0 0.0 0.00 0.01 0.01 91 1015.4
20260508030312 40 257 0.0 0.0 0.00 0.01 0.01 91 1015.6
20260508025808 40 257 0.0 0.0 0.00 0.01 0.01 91 1015.5
20260508025306 40 257 0.0 0.0 0.00 0.01 0.01 90 1015.3
20260508024801 41 257 0.0 0.0 0.00 0.01 0.01 90 1015.3
20260508024258 41 257 0.0 0.0 0.00 0.01 0.01 89 1015.3
20260508023755 41 257 0.0 0.0 0.00 0.01 0.01 88 1015.2
20260508023252 41 257 0.0 0.0 0.00 0.01 0.01 87 1015.1
20260508022748 42 257 0.0 0.0 0.00 0.01 0.01 87 1015.2
20260508022245 42 258 0.0 0.0 0.00 0.01 0.01 88 1015.1
20260508021742 42 258 0.0 0.0 0.00 0.01 0.01 88 1014.9
20260508021237 42 258 0.0 0.0 0.00 0.01 0.01 87 1014.7
20260508020735 43 258 0.0 0.0 0.00 0.01 0.01 85 1014.8
20260508020232 43 258 0.0 0.0 0.00 0.01 0.01 87 1014.7
20260508015729 43 258 0.0 0.0 0.00 0.01 0.01 87 1014.6
20260508015226 44 258 0.0 0.0 0.00 0.01 0.01 86 1014.5
20260508014723 44 258 0.0 0.0 0.00 0.01 0.01 85 1014.5
20260508014220 45 258 0.0 0.0 0.00 0.01 0.01 83 1014.4
20260508013716 45 258 0.0 0.0 0.00 0.01 0.01 83 1014.3
20260508013212 45 258 0.0 0.0 0.00 0.01 0.01 80 1014.2
20260508012710 46 258 0.0 0.0 0.00 0.01 0.01 78 1014.3
20260508012206 46 258 0.0 0.0 0.00 0.01 0.01 77 1014.0
20260508011705 46 258 0.0 0.0 0.00 0.01 0.01 74 1014.1
20260508011202 47 258 0.0 0.0 0.00 0.01 0.01 74 1014.0
20260508010659 48 258 0.0 0.0 0.00 0.01 0.01 73 1013.8
20260508010157 48 258 0.0 0.0 0.00 0.01 0.01 70 1013.8
20260508005654 49 258 0.0 0.0 0.00 0.01 0.01 68 1013.8
20260508005151 50 257 0.0 0.0 0.00 0.01 0.01 66 1013.5
20260508004646 51 258 0.0 0.0 0.00 0.01 0.01 63 1013.6
20260508004143 51 258 0.0 0.0 0.00 0.01 0.01 58 1013.7
20260508003639 52 258 0.0 0.0 0.00 0.01 0.01 57 1013.4
20260508003137 53 258 0.0 0.0 0.00 0.01 0.01 57 1013.4
20260508002633 53 213 0.0 0.0 0.00 0.01 0.01 57 1013.4
20260508002131 54 269 0.0 0.0 0.00 0.01 0.01 52 1013.3
20260508001631 55 270 0.0 0.0 0.00 0.01 0.01 49 1013.3
20260508001128 56 283 0.9 0.9 0.00 0.01 0.01 43 1013.1
20260508000623 57 307 0.0 1.7 0.00 0.01 0.01 46 1013.2
20260508000121 57 319 1.7 3.5 0.00 0.01 0.01 41 1013.1
20260507235618 58 307 0.9 1.7 0.00 0.01 0.01 41 1012.9
20260507235115 58 309 3.5 5.2 0.00 0.01 0.01 39 1012.6
20260507234612 59 269 3.5 6.1 0.00 0.01 0.01 36 1013.0
20260507234108 59 309 0.9 2.6 0.00 0.01 0.01 39 1012.8
20260507233605 60 273 2.6 7.0 0.00 0.01 0.01 35 1012.7
20260507233104 60 302 3.5 5.2 0.00 0.01 0.01 35 1012.9
20260507232600 61 308 6.1 8.7 0.00 0.01 0.01 34 1012.7
20260507232057 61 316 2.6 5.2 0.00 0.01 0.01 35 1012.5
20260507231553 61 278 1.7 3.5 0.00 0.01 0.01 40 1012.5
20260507231051 61 313 5.2 7.0 0.00 0.01 0.01 36 1012.5
20260507230547 61 304 7.8 9.6 0.00 0.01 0.01 35 1012.6
20260507230044 62 311 5.2 8.7 0.00 0.01 0.01 36 1012.6
20260507225538 62 316 3.5 3.5 0.00 0.01 0.01 38 1012.3
20260507225035 62 310 7.0 9.6 0.00 0.01 0.01 36 1012.4
20260507224531 62 324 1.7 3.5 0.00 0.01 0.01 34 1012.4
20260507224028 62 257 5.2 9.6 0.00 0.01 0.01 39 1012.5
20260507223524 62 314 3.5 7.0 0.00 0.01 0.01 36 1012.2
20260507223021 62 313 7.8 13.9 0.00 0.01 0.01 36 1012.2
20260507222518 62 316 5.2 7.0 0.00 0.01 0.01 38 1012.3
20260507222015 60 285 3.5 7.0 0.00 0.01 0.01 37 1012.2
20260507221511 60 314 5.2 8.7 0.00 0.01 0.01 39 1012.2
20260507221008 61 312 5.2 7.0 0.00 0.01 0.01 39 1012.1
20260507220505 63 305 6.1 11.3 0.00 0.01 0.01 40 1012.1
20260507220002 62 330 6.1 9.6 0.00 0.01 0.01 35 1012.1
20260507215458 62 356 0.9 8.7 0.00 0.01 0.01 37 1011.8
20260507214956 64 320 7.8 9.6 0.00 0.01 0.01 35 1011.7
20260507214453 63 283 2.6 6.1 0.00 0.01 0.01 38 1011.6
20260507213949 64 318 3.5 7.8 0.00 0.01 0.01 37 1011.7
20260507213446 63 319 7.8 11.3 0.00 0.01 0.01 39 1011.8
20260507212943 61 317 5.2 7.0 0.00 0.01 0.01 39 1011.7
20260507212438 61 313 3.5 6.1 0.00 0.01 0.01 43 1011.9
20260507211936 63 317 6.1 9.6 0.00 0.01 0.01 42 1011.6
20260507211432 65 302 4.3 7.8 0.00 0.01 0.01 38 1011.3
20260507210929 64 249 0.9 7.0 0.00 0.01 0.01 34 1011.3
20260507210426 62 300 6.1 9.6 0.00 0.01 0.01 40 1011.6
20260507205923 61 326 0.9 6.1 0.00 0.01 0.01 40 1011.4